DLR-TUBSAT

Last updated on Thu Mar 05 2026 00:02:38 GMT+0000 (Coordinated Universal Time)

1 25757U 99029B 26063.51016952 .00000227 00000+0 67493-4 0 9994 2 25757 98.6659 55.5929 0013335 311.7470 48.2584 14.52395353418053
UTC large
Height (km)
Speed (km/s)
/
Latitude / Longitude
Inclination (degrees)
Orbital Period (minutes)
Azimuth
Elevation
Range (km)
Doppler Factor

Next 0 passes for location: London (51.5072 / 0.1276)

Sorry there are no passes over London.